FW8640 Weather Reports


time (UTC)temp
F
wind
direction
speed
knots
gust
knots
rain 1hr
in
rain 24hr
in
rain mn
in
humidity
%
barometer
mb
20260506011018 59 0.0 0.0 0.00 0.00 0.00 67 1016.2
20260506010041 59 0.0 0.0 0.00 0.00 0.00 65 1016.2
20260506005020 60 0.0 0.0 0.00 0.00 0.00 64 1016.2
20260506004041 60 0.0 0.0 0.00 0.00 0.00 64 1016.1
20260506003018 60 0.0 0.0 0.00 0.00 0.00 62 1016.0
20260506002018 60 0.0 0.0 0.00 0.00 0.00 61 1016.1
20260506001019 60 0.0 0.0 0.00 0.00 0.00 61 1016.0
20260506000018 61 0.0 0.0 0.00 0.00 0.00 60 1016.1
20260505235017 61 0.0 0.0 0.00 0.00 0.00 59 1015.9
20260505234019 61 0.0 0.0 0.00 0.00 0.00 59 1015.9
20260505233020 61 0.0 0.0 0.00 0.00 0.00 59 1015.9
20260505232018 62 0.0 0.0 0.00 0.00 0.00 58 1015.9
20260505231019 62 0.0 0.0 0.00 0.00 0.00 58 1015.9
20260505230019 62 0.0 0.0 0.00 0.00 0.00 58 1015.9
20260505225020 62 0.0 0.0 0.00 0.00 0.00 57 1015.9
20260505224019 62 0.0 0.0 0.00 0.00 0.00 56 1016.1
20260505223039 62 0.0 0.0 0.00 0.00 0.00 56 1016.1
20260505222017 63 0.0 0.0 0.00 0.00 0.00 55 1016.1
20260505221018 63 0.0 0.0 0.00 0.00 0.00 54 1016.0
20260505220017 63 0.0 0.0 0.00 0.00 0.00 54 1016.0
20260505215019 63 0.0 0.0 0.00 0.00 0.00 53 1016.0
20260505214017 64 0.0 0.0 0.00 0.00 0.00 52 1015.9
20260505213017 64 0.0 0.0 0.00 0.00 0.00 51 1016.0
20260505212019 64 0.0 0.0 0.00 0.00 0.00 50 1015.9
20260505211040 64 0.0 0.0 0.00 0.00 0.00 49 1015.9
20260505210019 64 0.0 0.0 0.00 0.00 0.00 48 1015.8
20260505205020 65 0.0 0.0 0.00 0.00 0.00 47 1015.6
20260505204018 65 0.0 0.0 0.00 0.00 0.00 47 1015.6
20260505203104 66 0.0 0.0 0.00 0.00 0.00 45 1015.4
20260505202019 66 0.0 0.0 0.00 0.00 0.00 45 1015.3
20260505201041 67 0.0 0.0 0.00 0.00 0.00 44 1015.3
20260505200018 67 0.0 0.0 0.00 0.00 0.00 43 1015.3
20260505195018 67 0.0 0.0 0.00 0.00 0.00 43 1015.1
20260505194019 68 0.0 0.0 0.00 0.00 0.00 43 1015.1
20260505193019 68 0.0 0.0 0.00 0.00 0.00 42 1014.8
20260505192040 69 0.0 0.0 0.00 0.00 0.00 42 1014.8
20260505191018 69 0.0 0.0 0.00 0.00 0.00 41 1014.7
20260505190020 70 0.0 0.0 0.00 0.00 0.00 39 1014.7
20260505185041 71 0.0 0.0 0.00 0.00 0.00 39 1014.6
20260505184020 73 0.0 0.0 0.00 0.00 0.00 39 1014.5
20260505183018 73 0.0 0.0 0.00 0.00 0.00 37 1014.4
20260505182020 73 0.0 0.0 0.00 0.00 0.00 37 1014.3
20260505181018 74 0.0 0.0 0.00 0.00 0.00 36 1014.0
20260505180018 74 0.0 0.0 0.00 0.00 0.00 37 1014.0
20260505175018 75 0.0 0.0 0.00 0.00 0.00 36 1014.1
20260505174018 75 0.0 0.0 0.00 0.00 0.00 37 1014.1
20260505173040 76 0.0 0.0 0.00 0.00 0.00 37 1014.1
20260505172019 76 0.0 2.6 0.00 0.00 0.00 36 1014.1
20260505171018 76 0.0 0.0 0.00 0.00 0.00 36 1013.9
20260505170018 77 0.0 2.6 0.00 0.00 0.00 35 1014.0
20260505165018 77 0.0 1.7 0.00 0.00 0.00 36 1014.2
20260505164018 78 0.0 1.7 0.00 0.00 0.00 35 1014.3
20260505163018 79 0.0 0.9 0.00 0.00 0.00 34 1014.1
20260505162020 79 0.0 3.5 0.00 0.00 0.00 33 1014.2
20260505161018 79 0.0 4.3 0.00 0.00 0.00 33 1014.0
20260505153018 80 203 0.9 6.1 0.00 0.00 0.00 38 1014.2
20260505152018 80 0.0 4.3 0.00 0.00 0.00 36 1014.3
20260505151017 80 203 0.9 4.3 0.00 0.00 0.00 35 1014.3
20260505125017 80 203 1.7 7.8 0.00 0.00 0.00 36 1015.0
20260505124040 79 203 0.9 6.1 0.00 0.00 0.00 39 1015.1
20260505123018 79 203 0.9 4.3 0.00 0.00 0.00 40 1015.3
20260505122018 79 225 0.9 6.1 0.00 0.00 0.00 41 1015.4
20260505121019 78 225 0.9 5.2 0.00 0.00 0.00 42 1015.5
20260505120017 79 225 0.9 2.6 0.00 0.00 0.00 42 1015.7
20260505115018 80 225 0.9 5.2 0.00 0.00 0.00 40 1015.7
20260505114017 81 0.0 2.6 0.00 0.00 0.00 37 1015.9
20260505113040 81 248 0.9 2.6 0.00 0.00 0.00 34 1015.8
20260505112020 81 248 0.9 1.7 0.00 0.00 0.00 33 1015.9
20260505111019 80 0.0 2.6 0.00 0.00 0.00 33 1015.9
20260505102104 77 248 0.9 7.0 0.00 0.00 0.00 40 1016.4
20260505101021 77 0.0 3.5 0.00 0.00 0.00 40 1016.4
20260505100019 77 0.0 1.7 0.00 0.00 0.00 41 1016.4
20260505095020 77 0.0 1.7 0.00 0.00 0.00 41 1016.5
20260505094021 76 0.0 2.6 0.00 0.00 0.00 43 1016.7
20260505093105 75 0.0 1.7 0.00 0.00 0.00 44 1016.8
20260505092020 75 0.0 3.5 0.00 0.00 0.00 46 1016.9
20260505091019 75 0.0 2.6 0.00 0.00 0.00 46 1016.9
20260505090021 75 248 0.9 3.5 0.00 0.00 0.00 48 1016.9
20260505085020 74 248 0.9 7.0 0.00 0.00 0.00 48 1017.0
20260505084020 74 248 0.9 5.2 0.00 0.00 0.00 47 1017.1
20260505083041 73 248 0.9 4.3 0.00 0.00 0.00 45 1017.4
20260505082042 72 248 0.9 4.3 0.00 0.00 0.00 46 1017.3
20260505081019 71 248 0.9 4.3 0.00 0.00 0.00 50 1017.4
20260505080019 71 248 0.9 3.5 0.00 0.00 0.00 48 1017.3
20260505075019 71 248 0.9 5.2 0.00 0.00 0.00 47 1017.4
20260505074019 70 248 3.5 8.7 0.00 0.00 0.00 40 1017.3
20260505073042 70 225 2.6 9.6 0.00 0.00 0.00 40 1017.3
20260505072021 69 203 3.5 7.8 0.00 0.00 0.00 44 1017.5
20260505071019 68 203 2.6 6.1 0.00 0.00 0.00 45 1017.4
20260505070019 68 203 3.5 7.0 0.00 0.00 0.00 46 1017.6
20260505065020 67 203 1.7 5.2 0.00 0.00 0.00 48 1017.6
20260505064019 66 203 0.9 3.5 0.00 0.00 0.00 50 1017.5
20260505063018 66 0.0 1.7 0.00 0.00 0.00 57 1017.4
20260505062019 65 0.0 1.7 0.00 0.00 0.00 58 1017.3
20260505061018 65 0.0 2.6 0.00 0.00 0.00 60 1017.5
20260505055019 63 0.0 0.0 0.00 0.00 0.00 67 1017.6
20260505054018 62 0.0 0.0 0.00 0.00 0.00 68 1017.6
20260505053018 60 0.0 0.0 0.00 0.00 0.00 70 1017.4
20260505052018 59 0.0 0.0 0.00 0.00 0.00 71 1017.6
20260505051103 58 0.0 0.0 0.00 0.00 0.00 72 1017.5
20260505041019 55 0.0 0.0 0.00 0.00 0.00 72 1017.2
20260505040018 54 0.0 0.0 0.00 0.00 0.00 71 1017.3
20260505035019 54 0.0 0.0 0.00 0.00 0.00 71 1017.2
20260505034018 54 0.0 0.0 0.00 0.00 0.00 71 1017.2
20260505033019 54 0.0 0.0 0.00 0.00 0.00 70 1017.1
20260505032042 54 0.0 0.0 0.00 0.00 0.00 70 1017.2
20260505031018 54 0.0 0.0 0.00 0.00 0.00 69 1017.3
20260505030018 54 0.0 0.0 0.00 0.00 0.00 69 1017.2
20260505025020 54 0.0 0.0 0.00 0.00 0.00 68 1017.3
20260505024040 54 0.0 0.0 0.00 0.00 0.00 66 1017.5
20260505023020 54 0.0 0.0 0.00 0.00 0.00 66 1017.5
20260505022018 54 0.0 0.0 0.00 0.00 0.00 65 1017.5
20260505021018 54 0.0 0.0 0.00 0.00 0.00 65 1017.4
20260505020104 54 0.0 0.0 0.00 0.00 0.00 66 1017.4
20260505015043 54 0.0 0.0 0.00 0.00 0.00 66 1017.4
20260505014018 54 0.0 0.0 0.00 0.00 0.00 66 1017.4
20260505013018 54 0.0 0.0 0.00 0.00 0.00 66 1017.5
20260505012019 55 0.0 0.0 0.00 0.00 0.00 67 1017.5